Starlink 11665

operational
NORAD ID: 63549 Int'l Des: 2025-075 Owner: SPXS Country: US Constellation: starlink
LEOCIRCULAR

About Starlink 11665

Description loading...

Live Position

Loading 3D Globe...

Upcoming Passes

Altitude History

Altitude vs Time

uPlot chart will show altitude changes over time

Two-Line Element Set

1 63549U 25075B 25257.08339387 .00220787 00000-0 16703-2 0 9993
2 63549 43.0011 138.2744 0004661 272.5569 87.4765 15.70953563 25479
Epoch: Sep 14, 2025 • Age: 33 hours

Current Status

Altitude 355.6 km
Velocity 7.70 km/s
Sub-Earth Point 18.12°N, 134.68°E
Launch Date Apr 13, 2025
Age 0.4 years
Type internet

Technical Details

Classification Payload
Mass 960.00 kg
Dry Mass 910.00 kg
Total Mass 960.00 kg
Length 0.30 m
Diameter 4.10 m
Span 29.00 m
Shape Box + pan
Manufacturer SPXS
Bus Type Starlink V2MD
Phase Status In Orbit
Owner/State SPXS/US

Large Constellations

Loading constellations...